DAL2447 PANC-PAJN

Flight info

Callsign DAL2447
Flight time 1h 18m
Altitude 41000
Route JOH J501 YAK FAKES ASORT
Aircraft A359/H-SDE2E3GHIJ3J4J5LM1ORWXY/LB1D1

Departure

Time 2026-05-04 23:03
Airport Ted Stevens Anchorage International Airport (PANC)

Arrival

Time 2026-05-05 00:21
Airport Juneau International Airport (PAJN)
Time Latitude Longitude Altitude Speed Heading
2026-05-04 22:41 61.17434 -149.98723 121 ft 0 kts 27°
2026-05-04 22:58 61.17319 -149.98846 127 ft 0 kts 161°
2026-05-04 22:59 61.17232 -149.98817 122 ft 21 kts 193°
2026-05-04 23:00 61.17157 -149.98989 126 ft 19 kts 239°
2026-05-04 23:00 61.17130 -149.99269 124 ft 23 kts 267°
2026-05-04 23:00 61.17125 -149.99644 123 ft 29 kts 269°
2026-05-04 23:00 61.17124 -150.00074 126 ft 25 kts 272°
2026-05-04 23:01 61.17124 -150.00480 127 ft 31 kts 269°
2026-05-04 23:01 61.17113 -150.00756 125 ft 1 kts 239°
2026-05-04 23:01 61.17040 -150.00819 125 ft 21 kts 183°
2026-05-04 23:01 61.16993 -150.00777 124 ft 2 kts 127°
2026-05-04 23:02 61.16980 -150.00627 124 ft 22 kts 94°
2026-05-04 23:02 61.16977 -149.99899 120 ft 87 kts 90°
2026-05-04 23:02 61.16981 -149.98162 121 ft 152 kts 90°
2026-05-04 23:02 61.16981 -149.95673 385 ft 187 kts 87°
2026-05-04 23:03 61.17016 -149.92844 986 ft 203 kts 85°
2026-05-04 23:03 61.17137 -149.89800 1649 ft 224 kts 80°
2026-05-04 23:03 61.16925 -149.86513 2441 ft 239 kts 111°
2026-05-04 23:03 61.16188 -149.83453 3693 ft 235 kts 120°
2026-05-04 23:04 61.15356 -149.80560 4890 ft 233 kts 121°
2026-05-04 23:04 61.14555 -149.77700 6176 ft 226 kts 120°
2026-05-04 23:04 61.13823 -149.74814 7221 ft 229 kts 120°
2026-05-04 23:04 61.13128 -149.71797 8014 ft 238 kts 118°
2026-05-04 23:05 61.12458 -149.68612 8847 ft 244 kts 117°
2026-05-04 23:05 61.11812 -149.65328 9799 ft 249 kts 117°
2026-05-04 23:05 61.11161 -149.61938 10492 ft 262 kts 117°
2026-05-04 23:05 61.10457 -149.58266 10886 ft 287 kts 116°
2026-05-04 23:06 61.09693 -149.54272 11264 ft 311 kts 117°
2026-05-04 23:06 61.08874 -149.50021 11905 ft 322 kts 117°
2026-05-04 23:06 61.08039 -149.45693 12752 ft 328 kts 117°
2026-05-04 23:06 61.07174 -149.41258 13519 ft 336 kts 117°
2026-05-04 23:07 61.06293 -149.36725 14246 ft 343 kts 117°
2026-05-04 23:07 61.05401 -149.32147 15060 ft 347 kts 117°
2026-05-04 23:07 61.04492 -149.27504 15901 ft 350 kts 117°
2026-05-04 23:07 61.03582 -149.22894 16579 ft 353 kts 118°
2026-05-04 23:08 61.02659 -149.18168 17354 ft 356 kts 118°
2026-05-04 23:08 61.01711 -149.13427 18137 ft 360 kts 118°
2026-05-04 23:08 61.00754 -149.08627 18837 ft 363 kts 118°
2026-05-04 23:08 60.99792 -149.03810 19707 ft 363 kts 118°
2026-05-04 23:09 60.98823 -148.98990 20531 ft 365 kts 118°
2026-05-04 23:09 60.97850 -148.94152 21359 ft 367 kts 118°
2026-05-04 23:09 60.96875 -148.89296 22182 ft 368 kts 118°
2026-05-04 23:09 60.95910 -148.84438 23156 ft 366 kts 118°
2026-05-04 23:10 60.94930 -148.79597 23901 ft 367 kts 118°
2026-05-04 23:10 60.93935 -148.74721 24494 ft 372 kts 118°
2026-05-04 23:10 60.92931 -148.69785 25014 ft 375 kts 118°
2026-05-04 23:10 60.91919 -148.64809 25576 ft 380 kts 119°
2026-05-04 23:11 60.90888 -148.59790 26159 ft 383 kts 119°
2026-05-04 23:11 60.89853 -148.54761 26763 ft 384 kts 119°
2026-05-04 23:11 60.88810 -148.49692 27398 ft 388 kts 119°
2026-05-04 23:11 60.87757 -148.44535 27982 ft 391 kts 119°
2026-05-04 23:12 60.86703 -148.39361 28550 ft 395 kts 119°
2026-05-04 23:12 60.85633 -148.34141 29139 ft 398 kts 120°
2026-05-04 23:12 60.84545 -148.28896 29700 ft 401 kts 120°
2026-05-04 23:12 60.83447 -148.23612 30178 ft 405 kts 120°
2026-05-04 23:13 60.82336 -148.18273 30548 ft 409 kts 121°
2026-05-04 23:13 60.81211 -148.12883 30894 ft 414 kts 121°
2026-05-04 23:13 60.80071 -148.07434 31257 ft 418 kts 121°
2026-05-04 23:13 60.78919 -148.01941 31617 ft 421 kts 121°
2026-05-04 23:14 60.77761 -147.96421 31951 ft 425 kts 121°
2026-05-04 23:14 60.76584 -147.90828 32276 ft 428 kts 121°
2026-05-04 23:14 60.75402 -147.85228 32586 ft 431 kts 121°
2026-05-04 23:14 60.74208 -147.79589 32886 ft 434 kts 122°
2026-05-04 23:15 60.73001 -147.73900 33277 ft 435 kts 122°
2026-05-04 23:15 60.71802 -147.68253 33736 ft 434 kts 122°
2026-05-04 23:15 60.70594 -147.62582 34089 ft 435 kts 123°
2026-05-04 23:15 60.69385 -147.56927 34380 ft 436 kts 123°
2026-05-04 23:16 60.68163 -147.51241 34630 ft 438 kts 122°
2026-05-04 23:16 60.66917 -147.45460 34889 ft 440 kts 122°
2026-05-04 23:16 60.65694 -147.39798 35146 ft 442 kts 122°
2026-05-04 23:16 60.64448 -147.34062 35369 ft 444 kts 122°
2026-05-04 23:17 60.63200 -147.28297 35628 ft 446 kts 122°
2026-05-04 23:17 60.61945 -147.22521 35876 ft 447 kts 122°
2026-05-04 23:17 60.60680 -147.16721 36071 ft 449 kts 122°
2026-05-04 23:17 60.59401 -147.10882 36185 ft 454 kts 122°
2026-05-04 23:18 60.58096 -147.04943 36391 ft 455 kts 122°
2026-05-04 23:18 60.56804 -146.99064 36642 ft 456 kts 122°
2026-05-04 23:18 60.55519 -146.93240 36895 ft 457 kts 122°
2026-05-04 23:18 60.54216 -146.87357 37146 ft 458 kts 122°
2026-05-04 23:19 60.52910 -146.81472 37399 ft 459 kts 122°
2026-05-04 23:19 60.51570 -146.75455 37630 ft 460 kts 122°
2026-05-04 23:19 60.50265 -146.69610 37865 ft 461 kts 122°
2026-05-04 23:19 60.48954 -146.63669 38087 ft 464 kts 120°
2026-05-04 23:20 60.47879 -146.57345 38291 ft 473 kts 112°
2026-05-04 23:20 60.47070 -146.50955 38507 ft 476 kts 111°
2026-05-04 23:20 60.46316 -146.44409 38723 ft 478 kts 110°
2026-05-04 23:20 60.45612 -146.37996 38862 ft 479 kts 110°
2026-05-04 23:21 60.44893 -146.31386 39033 ft 480 kts 110°
2026-05-04 23:21 60.44171 -146.24786 39205 ft 480 kts 110°
2026-05-04 23:21 60.43441 -146.18195 39402 ft 480 kts 110°
2026-05-04 23:21 60.42701 -146.11611 39550 ft 481 kts 110°
2026-05-04 23:22 60.41951 -146.05009 39723 ft 481 kts 110°
2026-05-04 23:22 60.41196 -145.98415 39872 ft 482 kts 110°
2026-05-04 23:22 60.40423 -145.91711 40030 ft 482 kts 110°
2026-05-04 23:22 60.39658 -145.85105 40171 ft 483 kts 110°
2026-05-04 23:23 60.39149 -145.80729 40274 ft 483 kts 110°
2026-05-04 23:23 60.38377 -145.74120 40404 ft 484 kts 110°
2026-05-04 23:23 60.36819 -145.60851 40610 ft 486 kts 110°
2026-05-04 23:24 60.36033 -145.54204 40787 ft 486 kts 110°
2026-05-04 23:24 60.35245 -145.47570 40946 ft 486 kts 110°
2026-05-04 23:24 60.34452 -145.40930 41049 ft 487 kts 110°
2026-05-04 23:24 60.33655 -145.34285 41057 ft 487 kts 110°
2026-05-04 23:25 60.32058 -145.21018 41059 ft 487 kts 110°
2026-05-04 23:25 60.30440 -145.07753 41054 ft 487 kts 110°
2026-05-04 23:26 60.28808 -144.94498 41050 ft 487 kts 111°
2026-05-04 23:26 60.27163 -144.81260 41051 ft 487 kts 111°
2026-05-04 23:27 60.25506 -144.68031 41051 ft 488 kts 111°
2026-05-04 23:27 60.23838 -144.54804 41055 ft 487 kts 111°
2026-05-04 23:28 60.22147 -144.41582 41054 ft 488 kts 111°
2026-05-04 23:28 60.20447 -144.28384 41048 ft 488 kts 111°
2026-05-04 23:29 60.18731 -144.15160 41048 ft 488 kts 112°
2026-05-04 23:29 60.17006 -144.01975 41049 ft 488 kts 112°
2026-05-04 23:30 60.15267 -143.88807 41055 ft 488 kts 112°
2026-05-04 23:30 60.13513 -143.75640 41051 ft 488 kts 112°
2026-05-04 23:31 60.11747 -143.62496 41052 ft 488 kts 112°
2026-05-04 23:31 60.09969 -143.49369 41054 ft 488 kts 112°
2026-05-04 23:32 60.08178 -143.36253 41052 ft 488 kts 112°
2026-05-04 23:32 60.06374 -143.23157 41060 ft 488 kts 112°
2026-05-04 23:33 60.04558 -143.10084 41065 ft 488 kts 112°
2026-05-04 23:33 60.02729 -142.97013 41062 ft 488 kts 113°
2026-05-04 23:34 60.00885 -142.83952 41063 ft 488 kts 113°
2026-05-04 23:34 59.99028 -142.70908 41068 ft 488 kts 113°
2026-05-04 23:35 59.97157 -142.57866 41065 ft 488 kts 113°
2026-05-04 23:35 59.95277 -142.44862 41067 ft 488 kts 113°
2026-05-04 23:36 59.93382 -142.31855 41055 ft 488 kts 114°
2026-05-04 23:36 59.91475 -142.18873 41071 ft 489 kts 114°
2026-05-04 23:37 59.89549 -142.05869 41068 ft 489 kts 114°
2026-05-04 23:37 59.87614 -141.92905 41076 ft 488 kts 114°
2026-05-04 23:38 59.85668 -141.79962 41069 ft 488 kts 114°
2026-05-04 23:38 59.83708 -141.67025 41069 ft 488 kts 115°
2026-05-04 23:39 59.81736 -141.54109 41078 ft 488 kts 115°
2026-05-04 23:39 59.79750 -141.41204 41084 ft 488 kts 115°
2026-05-04 23:40 59.77754 -141.28323 41081 ft 488 kts 115°
2026-05-04 23:40 59.75745 -141.15459 41081 ft 488 kts 115°
2026-05-04 23:41 59.73721 -141.02591 41060 ft 488 kts 115°
2026-05-04 23:41 59.71686 -140.89761 41084 ft 489 kts 116°
2026-05-04 23:42 59.69632 -140.76905 41089 ft 490 kts 116°
2026-05-04 23:42 59.67566 -140.64055 41091 ft 490 kts 116°
2026-05-04 23:43 59.65489 -140.51232 41092 ft 490 kts 116°
2026-05-04 23:43 59.63399 -140.38425 41086 ft 489 kts 116°
2026-05-04 23:44 59.61292 -140.25611 41093 ft 491 kts 116°
2026-05-04 23:44 59.59173 -140.12815 41116 ft 491 kts 116°
2026-05-04 23:45 59.57041 -140.00030 41118 ft 491 kts 116°
2026-05-04 23:45 59.54894 -139.87238 41119 ft 491 kts 116°
2026-05-04 23:46 59.52737 -139.74486 41087 ft 490 kts 117°
2026-05-04 23:46 59.50261 -139.62056 41101 ft 482 kts 125°
2026-05-04 23:47 59.47162 -139.50421 41100 ft 480 kts 127°
2026-05-04 23:47 59.43969 -139.39010 41104 ft 479 kts 127°
2026-05-04 23:48 59.40721 -139.27496 41104 ft 479 kts 127°
2026-05-04 23:48 59.37493 -139.16047 41095 ft 479 kts 127°
2026-05-04 23:49 59.34259 -139.04602 41120 ft 480 kts 127°
2026-05-04 23:49 59.31010 -138.93149 41107 ft 481 kts 127°
2026-05-04 23:50 59.27777 -138.81812 41104 ft 480 kts 127°
2026-05-04 23:50 59.24509 -138.70413 41108 ft 481 kts 127°
2026-05-04 23:51 59.21231 -138.59036 41109 ft 481 kts 127°
2026-05-04 23:51 59.17938 -138.47670 41113 ft 481 kts 127°
2026-05-04 23:52 59.14628 -138.36299 41111 ft 483 kts 127°
2026-05-04 23:52 59.11306 -138.24937 41119 ft 483 kts 127°
2026-05-04 23:53 59.07972 -138.13572 41118 ft 484 kts 127°
2026-05-04 23:53 59.04635 -138.02224 41108 ft 486 kts 127°
2026-05-04 23:54 59.01235 -137.90781 41107 ft 485 kts 128°
2026-05-04 23:54 58.97870 -137.79560 41103 ft 484 kts 128°
2026-05-04 23:55 58.94491 -137.68283 41082 ft 485 kts 128°
2026-05-04 23:55 58.91091 -137.56980 39997 ft 486 kts 129°
2026-05-04 23:56 58.89382 -137.51369 39583 ft 481 kts 129°
2026-05-04 23:56 58.87691 -137.45830 39079 ft 478 kts 129°
2026-05-04 23:56 58.85992 -137.40210 38490 ft 477 kts 130°
2026-05-04 23:56 58.84321 -137.34683 37784 ft 477 kts 129°
2026-05-04 23:57 58.82656 -137.29232 37104 ft 477 kts 129°
2026-05-04 23:57 58.80968 -137.23709 36382 ft 478 kts 129°
2026-05-04 23:57 58.79260 -137.18104 35622 ft 479 kts 129°
2026-05-04 23:57 58.77561 -137.12560 34866 ft 480 kts 129°
2026-05-04 23:58 58.75872 -137.07105 34147 ft 481 kts 128°
2026-05-04 23:58 58.74141 -137.01572 33196 ft 484 kts 129°
2026-05-04 23:58 58.72398 -136.95998 32186 ft 489 kts 128°
2026-05-04 23:58 58.70651 -136.90350 31294 ft 492 kts 127°
2026-05-04 23:59 58.68899 -136.84677 30398 ft 494 kts 127°
2026-05-04 23:59 58.67139 -136.78994 29355 ft 496 kts 127°
2026-05-04 23:59 58.65343 -136.73226 28443 ft 496 kts 127°
2026-05-04 23:59 58.63597 -136.67650 27702 ft 492 kts 127°
2026-05-05 00:00 58.61848 -136.62032 26987 ft 489 kts 127°
2026-05-05 00:00 58.61262 -136.60148 26728 ft 488 kts 127°
2026-05-05 00:00 58.58406 -136.51009 25573 ft 480 kts 127°
2026-05-05 00:00 58.56675 -136.45555 24840 ft 477 kts 127°
2026-05-05 00:01 58.54945 -136.40070 24157 ft 474 kts 127°
2026-05-05 00:01 58.53327 -136.34927 23567 ft 469 kts 126°
2026-05-05 00:01 58.51680 -136.29673 22854 ft 464 kts 127°
2026-05-05 00:01 58.49983 -136.24375 22190 ft 457 kts 127°
2026-05-05 00:02 58.48322 -136.19246 21537 ft 451 kts 127°
2026-05-05 00:02 58.46703 -136.14242 20926 ft 446 kts 127°
2026-05-05 00:02 58.45605 -136.10853 20503 ft 442 kts 127°
2026-05-05 00:02 58.43995 -136.05895 19883 ft 436 kts 127°
2026-05-05 00:03 58.42406 -136.00995 19210 ft 432 kts 127°
2026-05-05 00:03 58.40325 -135.94577 18355 ft 427 kts 126°
2026-05-05 00:03 58.38774 -135.89791 17640 ft 422 kts 126°
2026-05-05 00:03 58.37241 -135.85067 16952 ft 417 kts 126°
2026-05-05 00:04 58.36011 -135.80079 16234 ft 420 kts 111°
2026-05-05 00:04 58.35479 -135.76536 15829 ft 418 kts 108°
2026-05-05 00:04 58.34751 -135.71138 15169 ft 413 kts 108°
2026-05-05 00:04 58.34045 -135.65874 14546 ft 409 kts 108°
2026-05-05 00:05 58.33338 -135.60663 13927 ft 404 kts 108°
2026-05-05 00:05 58.32636 -135.55523 13243 ft 399 kts 108°
2026-05-05 00:05 58.31710 -135.48802 12293 ft 394 kts 107°
2026-05-05 00:05 58.31241 -135.45409 11814 ft 391 kts 107°
2026-05-05 00:06 58.30558 -135.40496 11307 ft 387 kts 107°
2026-05-05 00:06 58.29875 -135.35584 11137 ft 370 kts 107°
2026-05-05 00:06 58.29240 -135.31032 11110 ft 350 kts 107°
2026-05-05 00:06 58.28626 -135.26637 11114 ft 329 kts 107°
2026-05-05 00:07 58.28060 -135.22613 11112 ft 311 kts 107°
2026-05-05 00:07 58.27511 -135.18689 11146 ft 300 kts 107°
2026-05-05 00:07 58.26975 -135.14891 11116 ft 301 kts 107°
2026-05-05 00:07 58.26436 -135.11097 10893 ft 294 kts 107°
2026-05-05 00:08 58.25893 -135.07289 10390 ft 297 kts 107°
2026-05-05 00:08 58.25352 -135.03500 9965 ft 297 kts 107°
2026-05-05 00:08 58.24813 -134.99730 9516 ft 295 kts 107°
2026-05-05 00:08 58.24277 -134.95980 9092 ft 293 kts 107°
2026-05-05 00:09 58.23745 -134.92268 8652 ft 292 kts 107°
2026-05-05 00:09 58.23211 -134.88548 8247 ft 289 kts 107°
2026-05-05 00:09 58.22683 -134.84885 8104 ft 288 kts 107°
2026-05-05 00:09 58.22159 -134.81207 8079 ft 288 kts 107°
2026-05-05 00:10 58.21626 -134.77536 8090 ft 289 kts 107°
2026-05-05 00:10 58.21089 -134.73865 8091 ft 289 kts 106°
2026-05-05 00:10 58.20555 -134.70197 8090 ft 288 kts 106°
2026-05-05 00:10 58.20024 -134.66544 8097 ft 288 kts 106°
2026-05-05 00:11 58.19490 -134.62883 8092 ft 288 kts 106°
2026-05-05 00:11 58.18955 -134.59228 8093 ft 288 kts 106°
2026-05-05 00:11 58.18421 -134.55578 8092 ft 288 kts 106°
2026-05-05 00:11 58.17883 -134.51914 8091 ft 288 kts 106°
2026-05-05 00:12 58.17347 -134.48271 8093 ft 288 kts 107°
2026-05-05 00:12 58.16807 -134.44615 8095 ft 288 kts 106°
2026-05-05 00:12 58.16266 -134.40959 8100 ft 288 kts 107°
2026-05-05 00:12 58.15725 -134.37311 8097 ft 288 kts 107°
2026-05-05 00:13 58.15181 -134.33650 8101 ft 288 kts 107°
2026-05-05 00:13 58.14695 -134.29989 8037 ft 286 kts 100°
2026-05-05 00:13 58.14809 -134.26272 7575 ft 286 kts 73°
2026-05-05 00:13 58.15552 -134.22779 7161 ft 285 kts 63°
2026-05-05 00:14 58.16679 -134.19729 6740 ft 283 kts 44°
2026-05-05 00:14 58.18331 -134.17813 6305 ft 279 kts 14°
2026-05-05 00:14 58.20226 -134.17865 6110 ft 273 kts 342°
2026-05-05 00:14 58.21825 -134.19646 6101 ft 261 kts 313°
2026-05-05 00:15 58.22885 -134.22258 6108 ft 241 kts 302°
2026-05-05 00:15 58.23767 -134.24857 6032 ft 227 kts 301°
2026-05-05 00:15 58.24598 -134.27320 5938 ft 217 kts 302°
2026-05-05 00:15 58.25399 -134.29670 5817 ft 208 kts 302°
2026-05-05 00:16 58.26180 -134.31946 5607 ft 204 kts 302°
2026-05-05 00:16 58.26946 -134.34172 5335 ft 204 kts 303°
2026-05-05 00:16 58.27712 -134.36396 5089 ft 203 kts 302°
2026-05-05 00:16 58.28469 -134.38591 4987 ft 192 kts 303°
2026-05-05 00:17 58.29180 -134.40646 4869 ft 183 kts 303°
2026-05-05 00:17 58.29877 -134.42663 4580 ft 182 kts 303°
2026-05-05 00:17 58.30583 -134.44602 4293 ft 181 kts 309°
2026-05-05 00:17 58.31451 -134.46382 4025 ft 179 kts 316°
2026-05-05 00:18 58.32474 -134.47574 3653 ft 177 kts 353°
2026-05-05 00:18 58.33600 -134.46929 3353 ft 172 kts 44°
2026-05-05 00:18 58.34048 -134.44890 3063 ft 168 kts 86°
2026-05-05 00:18 58.33532 -134.43150 2893 ft 152 kts 155°
2026-05-05 00:19 58.32604 -134.43719 2357 ft 161 kts 239°
2026-05-05 00:19 58.32733 -134.45804 1696 ft 177 kts 304°
2026-05-05 00:19 58.33474 -134.47791 1108 ft 194 kts 310°
2026-05-05 00:19 58.34334 -134.49798 762 ft 188 kts 308°
2026-05-05 00:20 58.34735 -134.51961 466 ft 171 kts 278°
2026-05-05 00:20 58.34994 -134.54082 211 ft 156 kts 286°
2026-05-05 00:20 58.35270 -134.56005 43 ft 140 kts 283°
2026-05-05 00:20 58.35465 -134.57391 41 ft 56 kts 285°
2026-05-05 00:21 58.35538 -134.57927 41 ft 25 kts 285°
2026-05-05 00:21 58.35556 -134.58005 40 ft 14 kts 302°
2026-05-05 00:21 58.35594 -134.58052 39 ft 3 kts 354°
2026-05-05 00:21 58.35670 -134.58067 41 ft 9 kts 322°